Regional Weather Roundup
Issued by NWS Sioux Falls, SD

Home | Current Version | Previous Version | Graphics & Text | Print | Product List | Glossary On
Versions: 1 2 3 4 5 6 7 8 9 10 11 12 13 14 15 16 17 18 19 20 21 22 23 24 25 26 27 28 29 30 31 32 33 34 35 36 37 38 39 40 41 42 43 44 45 46 47 48 49 50
000
ASUS43 KFSD 272110
RWRFSD

WEATHER ROUNDUP FOR SE SOUTH DAKOTA/SW MINNESOTA/NW IOWA
NATIONAL WEATHER SERVICE SIOUX FALLS SD
300 PM CST THU NOV 27 2014

NOTE: "FAIR" INDICATES FEW OR NO CLOUDS BELOW 12,000 FEET WITH NO
SIGNIFICANT WEATHER AND OR OBSTRUCTIONS TO VISIBILITY.


SDZ038>040-050-052>070-272200-
SOUTHEAST SOUTH DAKOTA

CITY           SKY/WX    TMP DP  RH WIND       PRES   REMARKS
CHAMBERLAIN    CLOUDY    22  13  67 SE15G21   30.13F WCI   9
HURON          CLOUDY    14   3  61 SE14G22   30.24F WCI  -1
MADISON        CLOUDY     9   0  66 SE14G20   30.24F WCI  -8
MITCHELL       PTSUNNY   15   6  67 SE16      30.24F WCI  -1
SIOUX FALLS    CLOUDY    11   0  61 SE13      30.29F WCI  -4
WINNER         CLOUDY    33  17  51 SE16G22   30.07F WCI  23
YANKTON        MOSUNNY   18   7  62 SE12      30.27F WCI   5
$$

MNZ071-072-080-081-089-090-097-098-272200-
SOUTHWEST MINNESOTA

CITY           SKY/WX    TMP DP  RH WIND       PRES   REMARKS
FAIRMONT       SUNNY      0  -8  71 SE5       30.40F WCI -10
JACKSON        SUNNY      5  -4  66 SE8       30.36F WCI  -8
LUVERNE        CLOUDY    12   0  57 SE10      30.33F WCI  -1
MARSHALL       SUNNY      5  -4  66 SE10      30.34F WCI -10
MONTEVIDEO     SUNNY      5  -2  72 S9        30.39F WCI  -9
PIPESTONE      CLOUDY     9   0  66 S10       30.27F WCI  -6
REDWOOD FALLS  SUNNY      0  -6  76 S8        30.41F WCI -14
TRACY          PTSUNNY    9  -1  62 SE9       30.35F WCI  -4
WINDOM         SUNNY      7  -4  61 E8        30.36F WCI  -6
WORTHINGTON    CLOUDY     7  -6  56 SE8       30.33F WCI  -6
$$

IAZ001>003-012>014-020>022-031-032-NEZ013-014-SDZ071-272200-
NORTHWEST IOWA

CITY           SKY/WX    TMP DP  RH WIND       PRES   REMARKS
CHEROKEE       CLOUDY    10   2  68 SE5       30.37F WCI   2
DENISON        CLOUDY    14   1  57 SE7       30.37F WCI   4
ESTHERVILLE    SUNNY      1  -5  75 E6        30.39F WCI -10
LE MARS        CLOUDY    12   3  67 SE9       30.36F WCI   0
ORANGE CITY    PTSUNNY   12   1  62 SE9       30.32F WCI   0
SHELDON        CLOUDY     9  -2  61 SE12      30.33F WCI  -6
SIOUX CITY     MOSUNNY   18   5  57 SE15      30.35F WCI   4
SPENCER        CLOUDY     7  -2  66 SE8       30.38F WCI  -6
STORM LAKE     CLOUDY     9   0  66 SE9       30.36F WCI  -5
$$

ABBREVIATIONS USED IN REMARKS
   TC - TEMPERATURE IN CELSIUS
  WCI - WIND CHILL INDEX
   HX - HEAT INDEX
  VSB - VISIBILITY




USA.gov is the U.S. government's official web portal to all federal, state and local government web resources and services.